Home > Weather > Wuhan > Past weeks

Flag for China Past Weather in Wuhan, Hubei, China — Yesterday and Last 2 Weeks

Now
77 °F

Rain. Scattered clouds.


Feels Like: 78 °F
Forecast: 75 / 82 °F
Wind: 10 mph from Southeast

Location: Wuhan Airport

Current Time: Jul 1, 2016 at 2:13:06 PM

Latest Report: Jul 1, 2016 at 1:00 PM


Visibility: 4 mi

Pressure: 29.53 "Hg

Humidity: 100%

Dew Point: 77 °F

Location of WuhanLocation

Past Weather in Wuhan — Graph

°F

Wuhan Temperature Yesterday

Maximum temperature yesterday: 88 °F (at 11:00 AM)
Minimum temperature yesterday: 75 °F (at 10:00 PM)
Average temperature yesterday: 83 °F

High & Low Weather Summary for the Past Weeks

 TemperatureHumidityPressure
High97 °F (Jun 23, 3:00 PM)100% (Jun 19, 4:00 AM)29.92 "Hg (Jun 19, 4:00 AM)
Low64 °F (Jun 24, 10:00 PM)36% (Jun 17, 4:00 PM)29.50 "Hg (Jun 23, 4:00 PM)
Average78 °F86%29.70 "Hg
* Reported Jun 16 1:00 PM — Jul 1 1:00 PM, Wuhan, Weather by CustomWeather, © 2016

Note: Actual official high and low records may vary slightly from our data, if they occured in-between our weather recording intervals... More about our weather records

Advertising

Wuhan Weather History for the Previous 24 Hours

Scroll right to see more
 ConditionsComfort  
Time TempWeatherWind HumidityBarometerVisibility
1:00 PM
Fri, Jul 1
77 °FRain. Scattered clouds.10 mph100%29.53 "Hg4 mi
12:00 PM77 °FRain. Fog.8 mph100%29.59 "Hg2 mi
11:00 AM77 °FRain. Scattered clouds.8 mph100%29.59 "Hg4 mi
10:00 AM77 °FRain. Scattered clouds.8 mph100%29.59 "Hg4 mi
9:00 AM77 °FLight rain. Clear.8 mph100%29.56 "HgN/A
8:00 AM77 °FLight rain. Clear.8 mph100%29.56 "HgN/A
7:00 AM77 °FLight rain. Scattered clouds.8 mph100%29.56 "HgN/A
6:00 AM77 °FStrong thunderstorms. Fog.10 mph100%29.56 "Hg2 mi
5:00 AM75 °FStrong thunderstorms. Mostly cloudy.8 mph100%29.56 "Hg5 mi
4:00 AM75 °FStrong thunderstorms. Mostly cloudy.6 mph100%29.56 "Hg5 mi
3:00 AM75 °FStrong thunderstorms. Fog.6 mph100%29.56 "Hg2 mi
2:00 AM75 °FStrong thunderstorms. Fog.6 mph100%29.59 "Hg2 mi
1:00 AM75 °FStrong thunderstorms. Fog.8 mph100%29.62 "Hg2 mi
12:00 AM77 °FStrong thunderstorms. Fog.6 mph100%29.65 "Hg2 mi
11:00 PM
Thu, Jun 30
77 °FThunderstorms. Fog.10 mph100%29.65 "Hg2 mi
10:00 PM75 °FStrong thunderstorms. Fog.8 mph100%29.68 "Hg1 mi
9:00 PM77 °FThunderstorms. Overcast.10 mph100%29.68 "Hg4 mi
8:00 PM79 °FLight rain. Overcast.6 mph100%29.68 "Hg4 mi
7:00 PM81 °FLight rain. Overcast.3 mph94%29.68 "Hg4 mi
6:00 PM81 °FLight rain. Overcast.8 mph94%29.65 "Hg4 mi
5:00 PM82 °FSprinkles. More clouds than sun.20 mph89%29.65 "HgN/A
4:00 PM86 °FSprinkles. Scattered clouds.6 mph89%29.65 "HgN/A
3:00 PM88 °FScattered clouds.6 mph79%29.68 "HgN/A
2:00 PM88 °FSunny.10 mph75%29.68 "Hg10 mi
Weather by CustomWeather, © 2016

See weather overviewHow to use our weather pages